This is the latest recevied weather packets stored in our database for station/object KQ4JKJ. If no packets are shown the sender has not sent any weather packets the latest 10 day(s).
| Time | Temp. | Humidity | Pressure | Rain* | Wind** | Luminosity | Snow |
|---|---|---|---|---|---|---|---|
| 1777247961 | 25° C | 72% | 1004.3 hPa | 0 mm | - | 1 W/m² | - |
| 1777247655 | 25° C | 71% | 1004.5 hPa | 0 mm | - | 3 W/m² | - |
| 1777247353 | 25° C | 71% | 1004.8 hPa | 0 mm | - | 4 W/m² | - |
| 1777247051 | 25.56° C | 71% | 1004.5 hPa | 0 mm | - | 6 W/m² | - |
| 1777246747 | 25.56° C | 71% | 1004.8 hPa | 0 mm | - | 9 W/m² | - |
| 1777246443 | 25° C | 70% | 1004.7 hPa | 0 mm | - | 14 W/m² | - |
| 1777246141 | 25° C | 71% | 1004.6 hPa | 0 mm | - | 18 W/m² | - |
| 1777245838 | 25° C | 72% | 1004.9 hPa | 0 mm | - | 22 W/m² | - |
| 1777245536 | 25.56° C | 72% | 1004.7 hPa | 0 mm | - | 28 W/m² | - |
| 1777245232 | 25.56° C | 73% | 1004.7 hPa | 0 mm | - | 34 W/m² | - |
| 1777244927 | 25° C | 74% | 1004.7 hPa | 0 mm | - | 52 W/m² | - |
| 1777244624 | 25° C | 75% | 1004.6 hPa | 0 mm | - | 55 W/m² | - |
| 1777244319 | 25.56° C | 76% | 1004.7 hPa | 0 mm | - | 47 W/m² | - |
| 1777244017 | 25.56° C | 74% | 1004.7 hPa | 0 mm | - | 43 W/m² | - |
| 1777243715 | 25.56° C | 70% | 1004.9 hPa | 0 mm | - | 38 W/m² | - |
| 1777243411 | 25° C | 70% | 1005 hPa | 0 mm | - | 36 W/m² | - |
| 1777243107 | 25° C | 73% | 1005 hPa | 0 mm | - | 31 W/m² | - |
| 1777242804 | 25.56° C | 76% | 1005.1 hPa | 0 mm | - | 28 W/m² | - |
| 1777242501 | 25.56° C | 77% | 1004.8 hPa | 0 mm | - | 29 W/m² | - |
| 1777242196 | 25.56° C | 76% | 1004.9 hPa | 0 mm | - | 37 W/m² | - |
| 1777241895 | 25.56° C | 76% | 1004.8 hPa | 0 mm | - | 38 W/m² | - |
| 1777241591 | 25.56° C | 77% | 1004.7 hPa | 0 mm | - | 45 W/m² | - |
| 1777241289 | 25.56° C | 78% | 1004.8 hPa | 0 mm | - | 61 W/m² | - |
| 1777240986 | 25.56° C | 80% | 1004.5 hPa | 0 mm | - | 82 W/m² | - |
| 1777240683 | 25.56° C | 80% | 1004.5 hPa | 0 mm | - | 79 W/m² | - |
* Rain latest hour (hover to see other rain measurements)
** Current wind speed in m/s (hover to see current wind gust speed)